Tracking 29892 objects as of 21-Nov-2024
HD Live streaming from Space Station
objects crossing your sky now

STARLINK-1733

Track STARLINK-1733 now!
10-day predictions
STARLINK-1733 is classified as:


NORAD ID: 46564
Int'l Code: 2020-070AJ
Perigee: 553.3 km
Apogee: 555.3 km
Inclination: 53.1 °
Period: 95.6 minutes
Semi major axis: 6925 km
RCS: Unknown
Launch date: October 6, 2020
Source: United States (US)
Launch site: AIR FORCE EASTERN TEST RANGE (AFETR)
Your satellite tracking list
Your tracking list is empty




NASA's NSSDC Master Catalog

Two Line Element Set (TLE):
1 46564U 20070AJ  24325.88390140  .00002854  00000-0  21035-3 0  9996
2 46564  53.0537 123.6882 0001399  81.8285 278.2862 15.06414553228375
Source of the keplerian elements: AFSPC